Regional Weather Roundup
Issued by NWS Charleston, SC

Current Version | Previous Version | Graphics & Text | Print | Product List | Glossary On
Versions: 1 2 3 4 5 6 7 8 9 10 11 12 13 14 15 16 17 18 19 20 21 22 23 24 25 26 27 28 29 30 31 32 33 34 35 36 37 38 39 40 41 42 43 44 45 46 47 48 49 50
000
ASUS42 KCHS 190425
RWRCHS

REGIONAL WEATHER ROUNDUP
NATIONAL WEATHER SERVICE CHARLESTON SC
1100 PM EST THU DEC 18 2014

NOTE: "FAIR" INDICATES FEW OR NO CLOUDS BELOW 12,000 FEET WITH NO
SIGNIFICANT WEATHER AND/OR OBSTRUCTIONS TO VISIBILITY.

NOT ALL STATIONS ARE QUALITY CONTROLLED BY THE NATIONAL
WEATHER SERVICE. USE DATA WITH CAUTION...ESPECIALLY
DEWPOINT OBSERVATIONS.

SCZ027-030-031-034>040-042>050-190500-
...SOUTHEAST SOUTH CAROLINA...

CITY           SKY/WX    TMP DP  RH WIND       PRES   REMARKS
N CHARLESTON   PTCLDY    46  44  93 CALM      30.12R
WATERFRONT PRK   N/A     52 N/A N/A W3          N/A
MOUNT PLEASANT FAIR      43  43 100 CALM      30.12R
PINOPOLIS        N/A     50  46  87 CALM      30.03R
MONCKS CORNER  FAIR      45  43  93 CALM      30.11S
SUMMERVILLE    NOT AVBL
BEAUFORT MCAS  PTCLDY    48  45  89 CALM      30.12R
BEAUFORT ARPT  FAIR      46  46 100 CALM      30.12R
HILTON HEAD IS PTCLDY    46  46 100 CALM      30.14R
WALTERBORO     PTCLDY    45 N/A N/A CALM      30.12R
ALLENDALE      FAIR      45  43  93 CALM      30.11R

...SOUTHERN MIDLANDS AND PEE DEE...

CITY           SKY/WX    TMP DP  RH WIND       PRES   REMARKS
GEORGETOWN     NOT AVBL
KINGSTREE      NOT AVBL
ORANGEBURG     CLEAR     43  39  86 CALM      30.12R
BARNWELL         N/A     39  39 100 CALM      30.12S
AIKEN          FAIR      41  41 100 CALM      30.14R
MANNING        NOT AVBL
COLUMBIA       PTCLDY    44  38  79 CALM      30.11R
SUMTER         PTCLDY    46  39  78 CALM      30.10S
FLORENCE       MOCLDY    42  35  76 CALM      30.12R
MYRTLE BEACH   MOCLDY    41  36  81 CALM      30.13R
N MYRTLE BEACH PTCLDY    40  37  89 CALM      30.11R

$$

GAZ063-065-086>088-099>101-113>116-118-119-134>141-150-190500-
...SOUTHEAST GEORGIA...

CITY           SKY/WX    TMP DP  RH WIND       PRES   REMARKS
SAVANNAH ARPT  CLOUDY    46  40  79 CALM      30.13S
HUNTER AAF     PTCLDY    46  44  91 W1        30.10S
FORT STEWART   MOCLDY    45  40  83 CALM      30.11S
STATESBORO     MOCLDY    42  42 100 CALM      30.12S
SYLVANIA       MOCLDY    45  44  97 CALM      30.13S
CLAXTON        FAIR      41  41 100 CALM      30.13S

...CSRA...CENTRAL AND FAR SOUTHEAST GEORGIA...

CITY           SKY/WX    TMP DP  RH WIND       PRES   REMARKS
THOMSON        PTCLDY    43  41  91 CALM      30.17S
AUGUSTA-BUSH   PTCLDY    42  38  85 CALM      30.12R
AUGUSTA-DANIEL PTCLDY    52  37  56 W5        30.12R
SWAINSBORO     FAIR      43  43 100 CALM      30.15R
VIDALIA        MOCLDY    45  43  93 CALM      30.14R
EASTMAN        FAIR      41  41 100 CALM      30.18R
HAZLEHURST     FAIR      48  44  85 CALM      30.13R
ALMA           CLOUDY    45  42  89 CALM      30.14R
WAYCROSS       CLOUDY    50  45  81 NW3       30.14R
JESUP          FAIR      45  43  93 CALM      30.13S
BAXLEY         FAIR      46  43  87 CALM      30.14R
BRUNSWICK      CLOUDY    48  43  81 CALM      30.13F
SAINT SIMONS   CLOUDY    51  44  77 CALM      30.13R

$$

SCZ027-028-034-036>038-045-046-048>050-GAZ119-141-190500-
...LAKE AND SUPPLEMENTAL COASTAL OBSERVATIONS...

STATION/POSITION TIME  TEMP    WIND        PRES    WAVE   SWELL
                       AIR SEA DIR/SP/G            HT/PER HT/PER/DIR
                 (UTC) (F)     (DEG/KT/KT) (MB)    (FT/S) (FT/S/D)
UPR LAKE MARION  NOT AVBL
WINYAH BAY       0400   42     310/  2     1019.0S
LAKE MURRAY      0400   50        CALM     1019.3R
ACE BASIN NERRS  0400   45        CALM     1020.0R
FORT PULASKI     0400   52 56  310/  1/  1 1020.2F
SAPELO ISLAND    0400   49        CALM     1020.0S

$$

ANZ835-935-AMZ111-154-330-350-352-354-370-450-454-472-190500-
...C-MAN AND BUOY OBSERVATIONS...

STATION/POSITION TIME  TEMP    WIND        PRES    WAVE   SWELL
                       AIR SEA DIR/SP/G            HT/PER HT/PER/DIR
                 (UTC) (F)     (DEG/KT/KT) (MB)    (FT/S) (FT/S/D)
BUOY 41004       0400   62 72  340/  4/  6 1019.0S   2/10   2/10
BUOY 41008       0400   57 57  270/  6/  8 1020.4R   1/10   2/110/10
FOLLY BEACH CMAN 0400   49     270/  4/  5 1020.5R
CAPERS NEARSHORE 0300   54      40/  4/  6   N/A
FRIPP NEARSHORE  NOT AVBL


STATION/POSITION TIME  TEMP    WIND        PRES    WAVE   SWELL
                       AIR SEA DIR/SP/G            HT/PER HT/PER/DIR
                 (UTC) (F)     (DEG/KT/KT) (MB)    (FT/S) (FT/S/D)
5E ST. MARYS GA  0400      61                N/A     1/11
FRYING PAN BUOY  0400   56 64  360/  4/  6 1019.9R   2/ 5   2/ 70/ 5
BUOY 41025       0400   47                 1019.6F   3/ 9
CAPE LOOKOUT NC  0400   48     360/  4/  5 1019.8R
BUOY 41002       0344   69 72  280/  4/  6 1018.2R   3/ 5   3/300/ 5
BUOY 41010       0400   70 76  300/  4/  6 1019.4S   2/10   2/ 90/10
ST AUGUSTINE FL  0400   55     260/  4/  5 1020.8R


$$



USA.gov is the U.S. government's official web portal to all federal, state and local government web resources and services.